| time (UTC) | temp F | wind direction | speed MPH | gust MPH | rain 1hr in | rain 24hr in | rain mn in | humidity % | barometer mb |
| 20260506022231 | 48 | 89 | 0.0 | 1.0 | 0.00 | 0.00 | 0.00 | 62 | 1009.1 |
| 20260506021730 | 48 | 49 | 0.0 | 1.0 | 0.00 | 0.00 | 0.00 | 62 | 1009.1 |
| 20260506021233 | 49 | 58 | 0.0 | 1.0 | 0.00 | 0.00 | 0.00 | 59 | 1009.1 |
| 20260506020729 | 49 | 135 | 0.0 | 1.0 | 0.00 | 0.00 | 0.00 | 64 | 1009.1 |
| 20260506020230 | 49 | 134 | 0.0 | 1.0 | 0.00 | 0.00 | 0.00 | 59 | 1008.7 |
| 20260506015734 | 49 | 77 | 0.0 | 1.0 | 0.00 | 0.00 | 0.00 | 58 | 1008.7 |
| 20260506015233 | 49 | 39 | 0.0 | 1.0 | 0.00 | 0.00 | 0.00 | 55 | 1008.7 |
| 20260506014728 | 50 | 55 | 0.0 | 2.0 | 0.00 | 0.00 | 0.00 | 56 | 1008.7 |
| 20260506014229 | 50 | 92 | 1.0 | 2.0 | 0.00 | 0.00 | 0.00 | 53 | 1008.7 |
| 20260506013727 | 50 | 124 | 0.0 | 1.0 | 0.00 | 0.00 | 0.00 | 52 | 1008.7 |
| 20260506013233 | 51 | 66 | 0.0 | 1.0 | 0.00 | 0.00 | 0.00 | 57 | 1008.4 |
| 20260506012725 | 51 | 55 | 0.0 | 1.0 | 0.00 | 0.00 | 0.00 | 53 | 1008.4 |
| 20260506012227 | 51 | 53 | 0.0 | 1.0 | 0.00 | 0.00 | 0.00 | 51 | 1008.0 |
| 20260506011949 | 51 | 147 | 0.0 | 1.0 | 0.00 | 0.00 | 0.00 | 49 | 1008.0 |
| 20260506011226 | 51 | 67 | 0.0 | 2.0 | 0.00 | 0.00 | 0.00 | 48 | 1008.0 |
| 20260506010736 | 51 | 91 | 0.0 | 2.0 | 0.00 | 0.00 | 0.00 | 51 | 1008.4 |
| 20260506010224 | 52 | 55 | 0.0 | 2.0 | 0.00 | 0.00 | 0.00 | 47 | 1008.0 |
| 20260506005722 | 52 | 54 | 0.0 | 2.0 | 0.00 | 0.00 | 0.00 | 46 | 1008.0 |
| 20260506005222 | 52 | 166 | 1.0 | 2.0 | 0.00 | 0.00 | 0.00 | 44 | 1008.0 |
| 20260506004721 | 52 | 357 | 0.0 | 3.0 | 0.00 | 0.00 | 0.00 | 44 | 1008.0 |
| 20260506004442 | 53 | 38 | 0.0 | 3.0 | 0.00 | 0.00 | 0.00 | 45 | 1008.0 |
| 20260506003720 | 53 | 320 | 0.0 | 2.0 | 0.00 | 0.00 | 0.00 | 43 | 1007.7 |
| 20260506003220 | 53 | 17 | 1.0 | 3.0 | 0.00 | 0.00 | 0.00 | 43 | 1007.7 |
| 20260506002718 | 53 | 315 | 0.0 | 4.0 | 0.00 | 0.00 | 0.00 | 45 | 1007.7 |
| 20260506002223 | 53 | 75 | 0.0 | 4.0 | 0.00 | 0.00 | 0.00 | 44 | 1007.7 |
| 20260506001717 | 53 | 47 | 2.0 | 3.0 | 0.00 | 0.00 | 0.00 | 44 | 1007.7 |
| 20260506001219 | 53 | 317 | 3.0 | 3.0 | 0.00 | 0.00 | 0.00 | 43 | 1007.7 |
| 20260506000944 | 53 | 38 | 0.0 | 3.0 | 0.00 | 0.00 | 0.00 | 43 | 1007.7 |
| 20260506000227 | 54 | 278 | 0.0 | 4.0 | 0.00 | 0.00 | 0.00 | 45 | 1007.7 |
| 20260506000219 | 53 | 327 | 1.0 | 4.0 | 0.00 | 0.00 | 0.00 | 43 | 1007.7 |
| 20260505235217 | 54 | 40 | 0.0 | 5.0 | 0.00 | 0.00 | 0.00 | 43 | 1007.7 |
| 20260505234715 | 54 | 138 | 5.0 | 5.0 | 0.00 | 0.00 | 0.00 | 43 | 1007.7 |
| 20260505234214 | 54 | 37 | 2.0 | 4.0 | 0.00 | 0.00 | 0.00 | 43 | 1007.7 |
| 20260505233713 | 54 | 319 | 0.0 | 4.0 | 0.00 | 0.00 | 0.00 | 43 | 1007.7 |
| 20260505233214 | 54 | 85 | 2.0 | 6.0 | 0.00 | 0.00 | 0.00 | 42 | 1007.7 |
| 20260505232714 | 54 | 339 | 2.0 | 6.0 | 0.00 | 0.00 | 0.00 | 41 | 1007.7 |
| 20260505232213 | 55 | 317 | 4.0 | 5.0 | 0.00 | 0.00 | 0.00 | 42 | 1007.7 |
| 20260505231712 | 54 | 295 | 2.0 | 4.0 | 0.00 | 0.00 | 0.00 | 41 | 1007.7 |
| 20260505231211 | 54 | 150 | 0.0 | 8.0 | 0.00 | 0.00 | 0.00 | 42 | 1007.7 |
| 20260505230711 | 54 | 176 | 1.0 | 8.0 | 0.00 | 0.00 | 0.00 | 44 | 1007.7 |
| 20260505230210 | 54 | 35 | 2.0 | 8.0 | 0.00 | 0.00 | 0.00 | 42 | 1007.7 |
| 20260505225709 | 54 | 191 | 3.0 | 8.0 | 0.00 | 0.00 | 0.00 | 44 | 1007.7 |
| 20260505225210 | 54 | 319 | 1.0 | 5.0 | 0.00 | 0.00 | 0.00 | 40 | 1008.0 |
| 20260505224711 | 54 | 302 | 5.0 | 5.0 | 0.00 | 0.00 | 0.00 | 40 | 1008.0 |
| 20260505224222 | 54 | 60 | 0.0 | 5.0 | 0.00 | 0.00 | 0.00 | 43 | 1008.0 |
| 20260505223710 | 54 | 243 | 2.0 | 5.0 | 0.00 | 0.00 | 0.00 | 39 | 1008.4 |
| 20260505223208 | 54 | 335 | 2.0 | 6.0 | 0.00 | 0.00 | 0.00 | 39 | 1008.0 |
| 20260505222705 | 54 | 196 | 2.0 | 9.0 | 0.00 | 0.01 | 0.00 | 41 | 1008.0 |
| 20260505222218 | 54 | 334 | 2.0 | 6.0 | 0.00 | 0.11 | 0.00 | 40 | 1008.0 |
| 20260505222209 | 54 | 314 | 1.0 | 9.0 | 0.00 | 0.03 | 0.00 | 40 | 1008.0 |
| 20260505221219 | 54 | 280 | 2.0 | 6.0 | 0.00 | 0.11 | 0.00 | 41 | 1008.0 |
| 20260505220704 | 54 | 293 | 3.0 | 5.0 | 0.00 | 0.11 | 0.00 | 38 | 1008.0 |
| 20260505220204 | 54 | 337 | 2.0 | 6.0 | 0.00 | 0.11 | 0.00 | 39 | 1008.0 |
| 20260505215701 | 54 | 297 | 0.0 | 6.0 | 0.00 | 0.11 | 0.00 | 40 | 1008.0 |
| 20260505215424 | 54 | 258 | 2.0 | 6.0 | 0.00 | 0.11 | 0.00 | 37 | 1008.4 |
| 20260505214703 | 54 | 208 | 2.0 | 6.0 | 0.00 | 0.11 | 0.00 | 39 | 1008.4 |
| 20260505214202 | 54 | 296 | 2.0 | 6.0 | 0.00 | 0.11 | 0.00 | 40 | 1008.4 |
| 20260505213700 | 54 | 311 | 3.0 | 7.0 | 0.00 | 0.11 | 0.00 | 38 | 1008.0 |
| 20260505213201 | 54 | 216 | 2.0 | 7.0 | 0.00 | 0.11 | 0.00 | 38 | 1008.0 |
| 20260505213149 | 54 | 320 | 0.0 | 6.0 | 0.00 | 0.11 | 0.00 | 38 | 1008.0 |
| 20260505212425 | 54 | 321 | 1.0 | 6.0 | 0.00 | 0.11 | 0.00 | 36 | 1008.0 |
| 20260505211659 | 55 | 176 | 2.0 | 6.0 | 0.00 | 0.11 | 0.00 | 40 | 1008.0 |
| 20260505211159 | 55 | 220 | 3.0 | 7.0 | 0.00 | 0.11 | 0.00 | 38 | 1008.0 |
| 20260505210918 | 55 | 263 | 1.0 | 8.0 | 0.00 | 0.11 | 0.00 | 38 | 1008.0 |
| 20260505210157 | 55 | 177 | 3.0 | 8.0 | 0.00 | 0.11 | 0.00 | 38 | 1008.0 |
| 20260505205656 | 55 | 309 | 2.0 | 6.0 | 0.00 | 0.11 | 0.00 | 39 | 1008.0 |
| 20260505205156 | 54 | 221 | 2.0 | 7.0 | 0.00 | 0.11 | 0.00 | 38 | 1008.0 |
| 20260505204654 | 54 | 253 | 4.0 | 7.0 | 0.00 | 0.11 | 0.00 | 39 | 1008.0 |
| 20260505204157 | 54 | 259 | 4.0 | 6.0 | 0.00 | 0.11 | 0.00 | 36 | 1008.0 |
| 20260505203655 | 54 | 351 | 3.0 | 5.0 | 0.00 | 0.11 | 0.00 | 38 | 1008.4 |
| 20260505203154 | 54 | 123 | 2.0 | 8.0 | 0.00 | 0.11 | 0.00 | 39 | 1008.4 |
| 20260505202654 | 54 | 257 | 6.0 | 8.0 | 0.00 | 0.11 | 0.00 | 39 | 1008.4 |
| 20260505202155 | 54 | 237 | 3.0 | 6.0 | 0.00 | 0.11 | 0.00 | 40 | 1008.4 |
| 20260505201653 | 54 | 336 | 2.0 | 6.0 | 0.00 | 0.11 | 0.00 | 38 | 1008.4 |
| 20260505201152 | 54 | 86 | 2.0 | 11.0 | 0.00 | 0.11 | 0.00 | 37 | 1008.7 |
| 20260505200651 | 54 | 185 | 0.0 | 11.0 | 0.00 | 0.11 | 0.00 | 36 | 1008.7 |
| 20260505200152 | 54 | 138 | 0.0 | 5.0 | 0.00 | 0.11 | 0.00 | 34 | 1008.4 |
| 20260505195649 | 54 | 134 | 3.0 | 8.0 | 0.00 | 0.11 | 0.00 | 35 | 1008.4 |
| 20260505195414 | 55 | 330 | 2.0 | 8.0 | 0.00 | 0.11 | 0.00 | 33 | 1008.7 |
| 20260505194650 | 55 | 244 | 0.0 | 8.0 | 0.00 | 0.11 | 0.00 | 34 | 1008.7 |
| 20260505194412 | 55 | 269 | 3.0 | 8.0 | 0.00 | 0.11 | 0.00 | 34 | 1008.4 |
| 20260505193648 | 55 | 339 | 2.0 | 8.0 | 0.00 | 0.11 | 0.00 | 34 | 1008.4 |
| 20260505193408 | 55 | 328 | 2.0 | 7.0 | 0.00 | 0.11 | 0.00 | 34 | 1008.4 |
| 20260505192647 | 55 | 276 | 2.0 | 7.0 | 0.00 | 0.11 | 0.00 | 34 | 1008.4 |
| 20260505192148 | 55 | 248 | 3.0 | 7.0 | 0.00 | 0.11 | 0.00 | 36 | 1008.4 |
| 20260505192136 | 55 | 198 | 6.0 | 7.0 | 0.00 | 0.11 | 0.00 | 35 | 1008.4 |
| 20260505191358 | 55 | 178 | 2.0 | 9.0 | 0.00 | 0.11 | 0.00 | 37 | 1008.7 |
| 20260505191246 | 55 | 14 | 2.0 | 9.0 | 0.00 | 0.11 | 0.00 | 34 | 1008.7 |
| 20260505190146 | 55 | 307 | 1.0 | 6.0 | 0.00 | 0.11 | 0.00 | 36 | 1008.7 |
| 20260505185903 | 55 | 284 | 4.0 | 9.0 | 0.00 | 0.11 | 0.00 | 37 | 1008.7 |
| 20260505185145 | 55 | 309 | 4.0 | 9.0 | 0.00 | 0.11 | 0.00 | 36 | 1008.7 |
| 20260505184644 | 55 | 311 | 4.0 | 7.0 | 0.00 | 0.11 | 0.00 | 39 | 1008.7 |
| 20260505184144 | 55 | 275 | 2.0 | 8.0 | 0.00 | 0.11 | 0.00 | 37 | 1008.7 |
| 20260505183906 | 55 | 254 | 3.0 | 8.0 | 0.00 | 0.11 | 0.00 | 37 | 1008.7 |
| 20260505183141 | 55 | 241 | 5.0 | 6.0 | 0.00 | 0.11 | 0.00 | 36 | 1008.7 |
| 20260505182907 | 55 | 167 | 2.0 | 8.0 | 0.00 | 0.11 | 0.00 | 35 | 1008.4 |
| 20260505182140 | 55 | 66 | 2.0 | 8.0 | 0.00 | 0.11 | 0.00 | 36 | 1008.4 |
| 20260505181640 | 54 | 284 | 0.0 | 8.0 | 0.00 | 0.11 | 0.00 | 39 | 1008.7 |
| 20260505181140 | 54 | 263 | 5.0 | 8.0 | 0.00 | 0.11 | 0.00 | 38 | 1008.4 |
| 20260505180639 | 54 | 262 | 0.0 | 7.0 | 0.00 | 0.11 | 0.00 | 35 | 1008.4 |
| 20260505180140 | 55 | 320 | 2.0 | 7.0 | 0.00 | 0.11 | 0.00 | 39 | 1008.7 |
| 20260505175639 | 55 | 276 | 5.0 | 7.0 | 0.00 | 0.11 | 0.00 | 40 | 1008.4 |
| 20260505175138 | 54 | 10 | 2.0 | 9.0 | 0.00 | 0.11 | 0.00 | 40 | 1008.4 |
| 20260505174636 | 54 | 58 | 2.0 | 10.0 | 0.00 | 0.11 | 0.00 | 39 | 1008.7 |
| 20260505174404 | 54 | 221 | 3.0 | 10.0 | 0.00 | 0.11 | 0.00 | 36 | 1008.4 |
| 20260505173635 | 54 | 182 | 3.0 | 8.0 | 0.00 | 0.11 | 0.00 | 37 | 1008.4 |
| 20260505173619 | 54 | 202 | 2.0 | 8.0 | 0.00 | 0.11 | 0.00 | 36 | 1008.4 |
| 20260505172636 | 54 | 177 | 4.0 | 7.0 | 0.00 | 0.11 | 0.00 | 39 | 1008.4 |
| 20260505172135 | 54 | 324 | 3.0 | 6.0 | 0.00 | 0.11 | 0.00 | 42 | 1008.4 |
| 20260505171632 | 54 | 46 | 2.0 | 6.0 | 0.00 | 0.11 | 0.00 | 44 | 1008.4 |
| 20260505171133 | 54 | 327 | 6.0 | 6.0 | 0.00 | 0.11 | 0.00 | 40 | 1008.4 |
| 20260505170633 | 54 | 152 | 5.0 | 6.0 | 0.00 | 0.11 | 0.00 | 40 | 1008.4 |
| 20260505170132 | 54 | 253 | 3.0 | 6.0 | 0.00 | 0.11 | 0.00 | 45 | 1008.0 |
| 20260505165630 | 54 | 306 | 1.0 | 9.0 | 0.00 | 0.11 | 0.00 | 44 | 1008.0 |
| 20260505165132 | 54 | 199 | 2.0 | 9.0 | 0.00 | 0.11 | 0.00 | 44 | 1008.4 |
| 20260505164629 | 53 | 24 | 3.0 | 9.0 | 0.00 | 0.11 | 0.00 | 42 | 1008.0 |
| 20260505164130 | 54 | 333 | 8.0 | 9.0 | 0.00 | 0.11 | 0.00 | 40 | 1008.4 |
| 20260505163628 | 53 | 41 | 3.0 | 9.0 | 0.00 | 0.11 | 0.00 | 41 | 1008.4 |
| 20260505163129 | 53 | 293 | 2.0 | 8.0 | 0.00 | 0.11 | 0.00 | 43 | 1008.7 |
| 20260505162628 | 53 | 297 | 6.0 | 9.0 | 0.00 | 0.11 | 0.00 | 41 | 1008.4 |
| 20260505162129 | 53 | 222 | 4.0 | 4.0 | 0.00 | 0.11 | 0.00 | 43 | 1008.4 |
| 20260505161627 | 52 | 203 | 2.0 | 4.0 | 0.00 | 0.11 | 0.00 | 44 | 1008.4 |
| 20260505161128 | 52 | 233 | 3.0 | 6.0 | 0.00 | 0.11 | 0.00 | 43 | 1008.0 |
| 20260505160627 | 52 | 298 | 1.0 | 6.0 | 0.00 | 0.11 | 0.00 | 41 | 1008.0 |
| 20260505160128 | 52 | 344 | 2.0 | 6.0 | 0.00 | 0.11 | 0.00 | 42 | 1008.4 |
| 20260505153125 | 52 | 55 | 4.0 | 8.0 | 0.00 | 0.11 | 0.00 | 41 | 1008.0 |
| 20260505152622 | 52 | 215 | 2.0 | 8.0 | 0.00 | 0.11 | 0.00 | 41 | 1008.0 |
| 20260505152121 | 52 | 224 | 4.0 | 7.0 | 0.00 | 0.11 | 0.00 | 41 | 1007.7 |
| 20260505151620 | 52 | 337 | 5.0 | 6.0 | 0.00 | 0.11 | 0.00 | 41 | 1008.0 |
| 20260505151122 | 52 | 165 | 4.0 | 7.0 | 0.00 | 0.11 | 0.00 | 41 | 1007.7 |
| 20260505150619 | 52 | 61 | 2.0 | 7.0 | 0.00 | 0.11 | 0.00 | 45 | 1008.0 |
| 20260505150119 | 51 | 267 | 2.0 | 5.0 | 0.00 | 0.11 | 0.00 | 47 | 1008.0 |
| 20260505140613 | 49 | 243 | 4.0 | 4.0 | 0.00 | 0.11 | 0.00 | 56 | 1008.0 |
| 20260505140338 | 49 | 45 | 0.0 | 3.0 | 0.00 | 0.11 | 0.00 | 56 | 1008.0 |
| 20260505130119 | 47 | 307 | 0.0 | 2.0 | 0.00 | 0.11 | 0.00 | 62 | 1008.4 |
| 20260505124829 | 47 | 55 | 0.0 | 2.0 | 0.00 | 0.11 | 0.00 | 66 | 1008.0 |
| 20260505124104 | 47 | 145 | 0.0 | 2.0 | 0.00 | 0.11 | 0.00 | 66 | 1008.0 |
| 20260505123604 | 47 | 248 | 0.0 | 2.0 | 0.00 | 0.11 | 0.00 | 66 | 1008.0 |
| 20260505123103 | 47 | 107 | 0.0 | 2.0 | 0.00 | 0.11 | 0.00 | 67 | 1008.0 |
| 20260505122602 | 47 | 138 | 2.0 | 2.0 | 0.00 | 0.11 | 0.00 | 67 | 1008.4 |
| 20260505122105 | 47 | 53 | 0.0 | 2.0 | 0.00 | 0.11 | 0.00 | 65 | 1008.0 |
| 20260505121826 | 47 | 79 | 0.0 | 2.0 | 0.00 | 0.11 | 0.00 | 64 | 1008.0 |
| 20260505121101 | 47 | 87 | 0.0 | 2.0 | 0.00 | 0.11 | 0.00 | 64 | 1008.4 |
| 20260505120600 | 47 | 261 | 0.0 | 2.0 | 0.00 | 0.11 | 0.00 | 65 | 1008.0 |
| 20260505120112 | 47 | 165 | 1.0 | 2.0 | 0.00 | 0.11 | 0.00 | 62 | 1008.0 |
| 20260505115600 | 47 | 132 | 2.0 | 3.0 | 0.00 | 0.11 | 0.00 | 62 | 1008.0 |
| 20260505115059 | 47 | 106 | 0.0 | 3.0 | 0.00 | 0.11 | 0.00 | 61 | 1008.0 |
| 20260505114558 | 47 | 10 | 0.0 | 2.0 | 0.00 | 0.11 | 0.00 | 60 | 1008.4 |
| 20260505114057 | 47 | 311 | 0.0 | 2.0 | 0.00 | 0.11 | 0.00 | 59 | 1008.0 |
| 20260505113600 | 47 | 332 | 0.0 | 2.0 | 0.00 | 0.11 | 0.00 | 58 | 1007.7 |
| 20260505113059 | 47 | 22 | 0.0 | 2.0 | 0.00 | 0.11 | 0.00 | 59 | 1007.4 |
| 20260505113047 | 47 | 76 | 1.0 | 5.0 | 0.00 | 0.11 | 0.00 | 58 | 1007.0 |
| 20260505112058 | 47 | 290 | 0.0 | 5.0 | 0.00 | 0.11 | 0.00 | 58 | 1006.7 |
| 20260505111556 | 47 | 55 | 2.0 | 4.0 | 0.00 | 0.11 | 0.00 | 57 | 1006.7 |
| 20260505111054 | 48 | 320 | 2.0 | 5.0 | 0.00 | 0.11 | 0.00 | 55 | 1007.4 |
| 20260505110606 | 48 | 1 | 2.0 | 5.0 | 0.00 | 0.11 | 0.00 | 54 | 1006.0 |
| 20260505110108 | 48 | 350 | 2.0 | 5.0 | 0.00 | 0.11 | 0.00 | 53 | 1006.3 |
| 20260505102050 | 49 | 320 | 2.0 | 4.0 | 0.00 | 0.11 | 0.00 | 54 | 1006.7 |
| 20260505101549 | 49 | 320 | 3.0 | 5.0 | 0.00 | 0.11 | 0.00 | 53 | 1006.3 |
| 20260505101049 | 49 | 286 | 2.0 | 5.0 | 0.00 | 0.11 | 0.00 | 53 | 1006.3 |
| 20260505100548 | 49 | 334 | 2.0 | 5.0 | 0.00 | 0.11 | 0.00 | 55 | 1005.6 |
| 20260505100046 | 50 | 4 | 1.0 | 5.0 | 0.00 | 0.11 | 0.00 | 55 | 1005.2 |
| 20260505095548 | 50 | 46 | 2.0 | 6.0 | 0.00 | 0.11 | 0.00 | 56 | 1005.2 |
| 20260505095046 | 50 | 25 | 2.0 | 6.0 | 0.00 | 0.11 | 0.00 | 56 | 1005.2 |
| 20260505094544 | 50 | 358 | 2.0 | 5.0 | 0.00 | 0.11 | 0.00 | 55 | 1005.6 |
| 20260505094046 | 50 | 20 | 2.0 | 5.0 | 0.00 | 0.11 | 0.00 | 54 | 1005.2 |
| 20260505093544 | 50 | 0 | 2.0 | 5.0 | 0.00 | 0.11 | 0.00 | 53 | 1005.6 |
| 20260505093045 | 51 | 14 | 3.0 | 5.0 | 0.00 | 0.11 | 0.00 | 54 | 1005.6 |
| 20260505093031 | 51 | 71 | 2.0 | 4.0 | 0.00 | 0.11 | 0.00 | 56 | 1005.6 |
| 20260505092048 | 51 | 23 | 0.0 | 4.0 | 0.00 | 0.11 | 0.00 | 54 | 1005.6 |
| 20260505092029 | 51 | 303 | 0.0 | 4.0 | 0.00 | 0.11 | 0.00 | 54 | 1005.2 |
| 20260505091042 | 51 | 311 | 1.0 | 5.0 | 0.00 | 0.11 | 0.00 | 54 | 1005.2 |
| 20260505090553 | 51 | 33 | 2.0 | 8.0 | 0.00 | 0.11 | 0.00 | 53 | 1005.2 |
| 20260505090041 | 51 | 32 | 2.0 | 8.0 | 0.00 | 0.11 | 0.00 | 55 | 1004.9 |
| 20260505085542 | 51 | 50 | 3.0 | 5.0 | 0.00 | 0.11 | 0.00 | 57 | 1005.2 |
| 20260505085041 | 52 | 345 | 2.0 | 5.0 | 0.00 | 0.11 | 0.00 | 57 | 1004.9 |
| 20260505084539 | 52 | 309 | 3.0 | 4.0 | 0.00 | 0.11 | 0.00 | 56 | 1004.9 |
| 20260505084040 | 52 | 358 | 3.0 | 4.0 | 0.00 | 0.11 | 0.00 | 55 | 1004.6 |
| 20260505083539 | 53 | 15 | 2.0 | 5.0 | 0.00 | 0.11 | 0.00 | 56 | 1004.6 |
| 20260505083040 | 53 | 336 | 2.0 | 6.0 | 0.00 | 0.11 | 0.00 | 55 | 1004.2 |
| 20260505082538 | 53 | 348 | 2.0 | 6.0 | 0.00 | 0.11 | 0.00 | 54 | 1003.9 |
| 20260505082301 | 52 | 23 | 0.0 | 5.0 | 0.00 | 0.11 | 0.00 | 56 | 1003.9 |
| 20260505081535 | 52 | 346 | 2.0 | 4.0 | 0.00 | 0.11 | 0.00 | 58 | 1003.9 |
| 20260505081043 | 52 | 71 | 2.0 | 4.0 | 0.00 | 0.11 | 0.00 | 58 | 1003.5 |
| 20260505080535 | 52 | 326 | 4.0 | 4.0 | 0.00 | 0.11 | 0.00 | 57 | 1003.5 |
| 20260505080034 | 52 | 279 | 1.0 | 3.0 | 0.00 | 0.11 | 0.00 | 57 | 1003.2 |
| 20260505075756 | 52 | 339 | 1.0 | 3.0 | 0.00 | 0.11 | 0.00 | 58 | 1003.2 |
| 20260505075034 | 52 | 48 | 2.0 | 3.0 | 0.00 | 0.11 | 0.00 | 58 | 1003.2 |
| 20260505074801 | 52 | 327 | 2.0 | 3.0 | 0.00 | 0.11 | 0.00 | 59 | 1003.2 |
| 20260505074033 | 52 | 332 | 2.0 | 3.0 | 0.00 | 0.11 | 0.00 | 57 | 1002.9 |
| 20260505073533 | 52 | 351 | 1.0 | 2.0 | 0.00 | 0.11 | 0.00 | 58 | 1002.9 |
| 20260505073032 | 52 | 3 | 1.0 | 2.0 | 0.00 | 0.11 | 0.00 | 59 | 1002.9 |
| 20260505072531 | 52 | 5 | 0.0 | 2.0 | 0.00 | 0.11 | 0.00 | 60 | 1003.2 |
| 20260505072032 | 53 | 233 | 0.0 | 3.0 | 0.00 | 0.11 | 0.00 | 58 | 1003.2 |
| 20260505072020 | 53 | 154 | 0.0 | 3.0 | 0.00 | 0.11 | 0.00 | 58 | 1003.2 |
| 20260505071030 | 53 | 130 | 0.0 | 2.0 | 0.00 | 0.11 | 0.00 | 57 | 1002.9 |
| 20260505070528 | 53 | 131 | 1.0 | 1.0 | 0.00 | 0.11 | 0.00 | 55 | 1002.5 |
| 20260505070030 | 53 | 318 | 1.0 | 2.0 | 0.00 | 0.11 | 0.00 | 55 | 1002.9 |
| 20260505065528 | 53 | 106 | 0.0 | 2.0 | 0.00 | 0.11 | 0.00 | 55 | 1002.5 |
| 20260505065248 | 53 | 283 | 0.0 | 2.0 | 0.00 | 0.11 | 0.00 | 55 | 1002.5 |
| 20260505064526 | 54 | 89 | 0.0 | 2.0 | 0.00 | 0.11 | 0.00 | 55 | 1002.2 |
| 20260505064028 | 54 | 41 | 0.0 | 2.0 | 0.00 | 0.11 | 0.00 | 55 | 1002.2 |
| 20260505063526 | 54 | 109 | 0.0 | 4.0 | 0.00 | 0.11 | 0.00 | 61 | 1002.2 |
| 20260505063515 | 55 | 48 | 1.0 | 4.0 | 0.00 | 0.11 | 0.00 | 53 | 1002.5 |
| 20260505062526 | 55 | 198 | 0.0 | 3.0 | 0.00 | 0.11 | 0.00 | 53 | 1002.2 |
| 20260505062243 | 55 | 91 | 0.0 | 3.0 | 0.00 | 0.11 | 0.00 | 51 | 1002.5 |
| 20260505061748 | 56 | 140 | 1.0 | 2.0 | 0.00 | 0.11 | 0.00 | 49 | 1002.2 |
| 20260505061024 | 56 | 185 | 0.0 | 2.0 | 0.00 | 0.11 | 0.00 | 49 | 1002.2 |
| 20260505060521 | 56 | 203 | 0.0 | 4.0 | 0.00 | 0.11 | 0.00 | 50 | 1002.2 |
| 20260505060024 | 56 | 300 | 2.0 | 4.0 | 0.00 | 0.11 | 0.00 | 48 | 1002.2 |
| 20260505055745 | 56 | 113 | 1.0 | 3.0 | 0.00 | 0.11 | 0.00 | 48 | 1001.7 |
| 20260505055021 | 56 | 135 | 1.0 | 3.0 | 0.00 | 0.11 | 0.00 | 47 | 1002.2 |
| 20260505054521 | 56 | 27 | 2.0 | 4.0 | 0.00 | 0.11 | 0.00 | 48 | 1001.7 |
| 20260505054022 | 57 | 182 | 2.0 | 4.0 | 0.00 | 0.11 | 0.00 | 47 | 1002.2 |
| 20260505053751 | 57 | 123 | 0.0 | 5.0 | 0.00 | 0.11 | 0.00 | 47 | 1001.7 |
| 20260505053027 | 57 | 75 | 0.0 | 5.0 | 0.00 | 0.11 | 0.00 | 48 | 1001.7 |
| 20260505052524 | 57 | 289 | 2.0 | 5.0 | 0.00 | 0.11 | 0.00 | 47 | 1001.4 |
| 20260505052031 | 58 | 214 | 2.0 | 5.0 | 0.00 | 0.11 | 0.00 | 48 | 1001.7 |
| 20260505051517 | 57 | 350 | 1.0 | 5.0 | 0.00 | 0.11 | 0.00 | 46 | 1001.7 |
| 20260505051017 | 57 | 330 | 3.0 | 4.0 | 0.00 | 0.11 | 0.00 | 48 | 1001.4 |
| 20260505050515 | 57 | 265 | 1.0 | 5.0 | 0.00 | 0.11 | 0.00 | 50 | 1001.7 |
| 20260505041512 | 60 | 311 | 0.0 | 2.0 | 0.00 | 0.11 | 0.11 | 52 | 1001.1 |
| 20260505041010 | 60 | 322 | 1.0 | 3.0 | 0.00 | 0.11 | 0.11 | 50 | 1001.1 |
| 20260505040511 | 60 | 301 | 2.0 | 4.0 | 0.00 | 0.11 | 0.11 | 51 | 1001.1 |
| 20260505040012 | 61 | 339 | 2.0 | 4.0 | 0.00 | 0.11 | 0.11 | 51 | 1001.1 |
| 20260505035508 | 61 | 359 | 1.0 | 4.0 | 0.00 | 0.11 | 0.11 | 56 | 1001.1 |
| 20260505035010 | 61 | 300 | 0.0 | 3.0 | 0.00 | 0.11 | 0.11 | 56 | 1001.1 |
| 20260505034508 | 61 | 248 | 2.0 | 3.0 | 0.00 | 0.11 | 0.11 | 56 | 1001.1 |
| 20260505034010 | 61 | 279 | 0.0 | 3.0 | 0.00 | 0.11 | 0.11 | 58 | 1000.7 |
| 20260505033507 | 61 | 260 | 1.0 | 2.0 | 0.00 | 0.11 | 0.11 | 57 | 1000.7 |
| 20260505033009 | 61 | 215 | 1.0 | 3.0 | 0.00 | 0.11 | 0.11 | 59 | 1000.4 |
| 20260505032725 | 61 | 244 | 2.0 | 3.0 | 0.00 | 0.11 | 0.11 | 58 | 1000.4 |
| 20260505032007 | 62 | 214 | 3.0 | 3.0 | 0.00 | 0.11 | 0.11 | 60 | 1000.4 |
| 20260505031505 | 61 | 244 | 1.0 | 3.0 | 0.00 | 0.11 | 0.11 | 64 | 1000.4 |
| 20260505031444 | 61 | 262 | 2.0 | 3.0 | 0.00 | 0.11 | 0.11 | 67 | 1000.4 |
| 20260505030503 | 62 | 252 | 0.0 | 5.0 | 0.00 | 0.11 | 0.11 | 68 | 1000.1 |
| 20260505030004 | 62 | 207 | 3.0 | 5.0 | 0.00 | 0.11 | 0.11 | 70 | 1000.4 |
| 20260505025504 | 62 | 240 | 4.0 | 4.0 | 0.00 | 0.11 | 0.11 | 71 | 1000.4 |
| 20260505025002 | 61 | 218 | 2.0 | 5.0 | 0.00 | 0.11 | 0.11 | 73 | 1000.4 |
| 20260505024501 | 61 | 204 | 2.0 | 7.0 | 0.00 | 0.11 | 0.11 | 74 | 1000.4 |
| 20260505024227 | 62 | 239 | 3.0 | 8.0 | 0.00 | 0.11 | 0.11 | 74 | 1000.4 |
| 20260505023001 | 61 | 190 | 4.0 | 6.0 | 0.00 | 0.11 | 0.11 | 74 | 1000.1 |
| 20260505022502 | 62 | 268 | 2.0 | 6.0 | 0.00 | 0.11 | 0.11 | 74 | 1000.1 |